TimeMST,TemperatureF,Dew PointF,Humidity,Sea Level PressureIn,VisibilityMPH,Wind Direction,Wind SpeedMPH,Gust SpeedMPH,PrecipitationIn,Events,Conditions,WindDirDegrees,DateUTC
12:51 AM,-6.0,-11.9,75,30.80,-9999.0,North,3.5,-,N/A,,Clear,10,2013-01-21 07:51:00
1:51 AM,-8.0,-11.9,83,30.80,-9999.0,Calm,Calm,-,N/A,,Clear,0,2013-01-21 08:51:00
2:51 AM,-6.0,-9.0,87,30.79,-9999.0,Calm,Calm,-,N/A,,Partly Cloudy,0,2013-01-21 09:51:00
3:02 AM,-5.8,-9.4,84,30.50,-9999.0,Calm,Calm,-,N/A,,Mostly Cloudy,0,2013-01-21 10:02:00
3:17 AM,-9.4,-13.0,84,30.50,-9999.0,SW,4.6,-,N/A,,Overcast,220,2013-01-21 10:17:00
3:51 AM,-11.0,-16.1,78,30.81,-9999.0,Calm,Calm,-,N/A,,Overcast,0,2013-01-21 10:51:00
4:51 AM,-9.9,-15.0,78,30.80,-9999.0,Calm,Calm,-,N/A,,Partly Cloudy,0,2013-01-21 11:51:00
5:06 AM,-11.2,-14.8,84,30.49,-9999.0,Calm,Calm,-,N/A,,Scattered Clouds,0,2013-01-21 12:06:00
5:12 AM,-9.4,-16.6,71,30.49,-9999.0,Calm,Calm,-,N/A,,Mostly Cloudy,0,2013-01-21 12:12:00
5:21 AM,-11.2,-16.6,77,30.49,-9999.0,Calm,Calm,-,N/A,,Mostly Cloudy,0,2013-01-21 12:21:00
5:51 AM,-8.0,-14.1,75,30.80,-9999.0,Calm,Calm,-,N/A,,Overcast,0,2013-01-21 12:51:00
6:17 AM,-9.4,-14.8,77,30.49,-9999.0,Calm,Calm,-,N/A,,Overcast,0,2013-01-21 13:17:00
6:23 AM,-9.4,-13.0,84,30.50,-9999.0,Calm,Calm,-,N/A,,Overcast,0,2013-01-21 13:23:00
6:51 AM,-13.0,-16.1,86,30.85,-9999.0,NW,3.5,-,N/A,,Overcast,310,2013-01-21 13:51:00
7:01 AM,-11.2,-16.6,77,30.51,-9999.0,Calm,Calm,-,N/A,,Overcast,0,2013-01-21 14:01:00
7:11 AM,-11.2,-14.8,84,30.50,-9999.0,Calm,Calm,-,N/A,,Overcast,0,2013-01-21 14:11:00
7:51 AM,-11.0,-14.1,86,30.87,-9999.0,Calm,Calm,-,N/A,,Overcast,0,2013-01-21 14:51:00
8:51 AM,-9.0,-11.9,87,30.84,-9999.0,Calm,Calm,-,N/A,,Overcast,0,2013-01-21 15:51:00
9:01 AM,-9.4,-11.2,92,30.51,-9999.0,Calm,Calm,-,N/A,,Overcast,0,2013-01-21 16:01:00
9:09 AM,-7.6,-11.2,84,30.51,-9999.0,Calm,Calm,-,N/A,,Overcast,0,2013-01-21 16:09:00
9:51 AM,-5.1,-9.9,80,30.84,-9999.0,Calm,Calm,-,N/A,,Partly Cloudy,0,2013-01-21 16:51:00
10:51 AM,-0.9,-5.1,83,30.82,-9999.0,Calm,Calm,-,N/A,,Clear,0,2013-01-21 17:51:00
11:51 AM,1.9,-0.9,88,30.82,-9999.0,Calm,Calm,-,N/A,,Clear,0,2013-01-21 18:51:00
12:51 PM,3.0,-2.0,80,30.78,-9999.0,Calm,Calm,-,N/A,,Clear,0,2013-01-21 19:51:00
1:51 PM,5.0,-0.9,76,30.76,-9999.0,West,3.5,-,N/A,,Clear,270,2013-01-21 20:51:00
2:51 PM,8.1,1.0,73,30.73,-9999.0,Calm,Calm,-,N/A,,Clear,0,2013-01-21 21:51:00
3:51 PM,7.0,1.0,77,30.73,-9999.0,Calm,Calm,-,N/A,,Clear,0,2013-01-21 22:51:00
4:51 PM,3.9,-2.0,76,30.73,-9999.0,NNW,5.8,-,N/A,,Clear,340,2013-01-21 23:51:00
5:51 PM,1.0,-4.0,79,30.73,-9999.0,Calm,Calm,-,N/A,,Clear,0,2013-01-22 00:51:00
6:51 PM,1.9,-2.0,83,30.75,-9999.0,Calm,Calm,-,N/A,,Clear,0,2013-01-22 01:51:00
7:51 PM,-4.0,-8.0,83,30.76,-9999.0,Calm,Calm,-,N/A,,Clear,0,2013-01-22 02:51:00
8:51 PM,-7.1,-11.0,83,30.76,-9999.0,Calm,Calm,-,N/A,,Clear,0,2013-01-22 03:51:00
9:51 PM,-4.0,-7.1,87,30.76,-9999.0,Calm,Calm,-,N/A,,Clear,0,2013-01-22 04:51:00
10:51 PM,-4.0,-7.1,87,30.75,-9999.0,WSW,3.5,-,N/A,,Scattered Clouds,250,2013-01-22 05:51:00
10:56 PM,-5.8,-7.6,92,30.45,-9999.0,WSW,3.5,-,N/A,,Mostly Cloudy,240,2013-01-22 05:56:00
11:05 PM,-5.8,-7.6,92,30.45,-9999.0,Calm,Calm,-,N/A,,Mostly Cloudy,0,2013-01-22 06:05:00
11:22 PM,-5.8,-7.6,92,30.45,-9999.0,Calm,Calm,-,N/A,,Overcast,0,2013-01-22 06:22:00
11:51 PM,-7.1,-11.0,83,30.75,-9999.0,Calm,Calm,-,N/A,,Overcast,0,2013-01-22 06:51:00